Dewpoint
52 52 52 52 52 52 50 49 49 50 50 52 52 52 53 54 54 52 48 47 49 48 49 49 49 49 50 52 53 56 59 61 62 62 62 62 62 62 62 62 62 62
50 52 52 50 49 49 48 48 48 49 50 51 51 51 52 52 53 51 47 46 46 47 47 48 47 46 47 49 50 53 55 56 58 60 61 61 61 61 61 61 61 61
49 49 49 48 47 47 47 47 47 47 48 49 50 51 51 52 51 51 46 45 44 44 45 46 45 45 45 46 47 50 50 52 53 54 56 58 60 61 61 61 61 61
48 49 48 48 47 46 46 45 45 45 46 46 47 48 49 50 50 50 46 45 43 43 43 43 43 43 43 43 44 46 47 49 50 51 52 55 57 60 61 62 61 61
47 47 48 48 47 46 45 45 44 44 44 45 45 46 46 47 47 48 48 45 43 42 42 41 41 41 41 42 42 45 46 46 46 47 49 51 53 56 59 61 61 61
46 46 47 47 47 46 44 44 44 44 44 44 44 45 45 45 45 45 46 45 42 41 41 40 40 40 40 40 41 42 42 43 43 44 46 47 50 53 55 58 60 60
46 46 45 46 46 46 45 44 44 45 44 44 43 43 44 44 45 44 44 44 42 41 40 40 40 40 40 40 40 40 40 41 42 42 43 44 47 49 52 54 56 59
45 45 45 45 45 46 46 45 44 44 44 43 42 42 43 43 43 44 44 43 41 40 39 39 39 39 39 39 39 39 40 41 42 42 43 44 45 47 49 51 53 55
45 45 45 44 44 45 46 46 45 44 44 43 43 42 43 43 42 42 43 42 40 39 39 39 39 39 39 39 39 39 40 40 41 42 43 44 45 46 47 50 52 53
44 44 44 44 44 44 44 45 46 45 45 43 43 42 42 42 43 42 41 41 40 39 39 38 38 39 39 39 39 39 39 40 41 42 43 44 45 46 47 50 52 53
42 42 42 42 42 42 42 43 44 45 46 44 43 42 42 41 42 42 40 39 39 39 39 38 38 39 39 38 39 39 39 40 41 42 43 44 45 47 50 51 53 54
42 42 42 42 42 41 40 41 41 42 44 45 44 42 42 41 41 41 41 39 39 39 39 38 38 39 39 38 38 39 39 40 41 43 44 45 47 48 50 51 51 50
42 42 42 42 42 42 41 40 40 41 41 43 44 42 41 40 40 40 41 40 39 39 39 38 38 39 39 38 38 39 39 40 41 42 44 45 46 47 47 47 48 49
42 42 42 43 43 42 42 41 40 40 40 41 42 41 40 40 40 39 39 39 39 39 39 39 38 38 39 38 38 39 39 39 40 41 43 43 44 44 46 46 47 47
40 40 40 40 42 42 41 41 40 40 40 40 41 41 42 40 39 39 39 38 38 38 38 38 38 39 39 39 38 38 39 39 39 41 41 42 43 43 43 43 44 45
37 38 37 37 38 40 41 41 40 40 40 39 39 40 40 41 39 39 39 38 38 38 38 38 38 39 41 40 40 39 39 39 39 40 39 40 41 41 41 41 42 42
35 35 35 35 35 36 38 40 40 39 39 39 39 39 39 40 39 39 39 39 38 38 37 38 38 39 38 38 38 38 39 39 39 39 39 38 39 39 40 40 40 41
34 34 34 34 34 34 35 36 38 39 38 37 38 39 39 39 39 39 39 38 38 38 37 38 38 39 37 38 38 38 39 39 39 39 39 38 38 38 39 39 39 40
34 33 33 33 33 34 34 34 34 35 36 36 35 37 37 37 38 37 38 38 38 37 37 37 37 38 37 37 37 37 38 38 38 38 39 38 38 38 38 38 39 40
34 33 33 33 33 33 33 33 33 34 35 35 35 35 35 35 35 35 35 35 36 36 36 36 36 38 37 37 37 37 37 38 37 37 38 38 38 38 38 38 38 39
34 34 33 33 33 32 32 32 33 33 34 35 34 34 34 34 33 33 33 34 34 34 35 35 36 37 36 37 37 37 37 38 37 37 37 37 38 38 38 38 38 39
34 33 33 33 33 32 32 32 32 32 33 33 34 33 34 34 34 32 32 31 32 33 34 33 34 36 36 36 37 37 38 38 37 36 36 36 37 37 38 38 38 38
34 34 33 32 32 32 32 32 32 32 32 35 31 31 32 33 35 33 32 31 32 32 33 33 33 35 36 36 36 37 38 37 37 36 36 36 36 37 37 37 37 38
34 34 33 33 32 32 31 31 32 31 32 34 31 31 31 31 34 34 32 32 32 32 34 33 33 35 36 36 36 37 38 37 37 36 36 36 36 36 36 36 37 40
34 34 33 32 32 32 32 32 31 32 32 31 32 31 32 31 35 33 32 31 31 32 36 33 33 35 36 36 36 36 37 37 37 36 36 35 35 35 36 36 36 37
35 35 34 32 32 32 32 33 34 31 32 31 31 31 31 31 31 32 31 30 31 31 32 33 34 35 36 36 36 36 37 38 37 36 36 36 35 35 35 35 35 36